This is the latest recevied weather packets stored in our database for station/object YO6LRV-3. If no packets are shown the sender has not sent any weather packets the latest 10 day(s).
| Time | Temp. | Humidity | Pressure | Rain* | Wind** | Luminosity | Snow |
|---|---|---|---|---|---|---|---|
| 1777985472 | 30° C | 25% | 1013.8 hPa | - | - | - | - |
| 1777984572 | 30.56° C | 25% | 1014 hPa | - | - | - | - |
| 1777983672 | 30.56° C | 28% | 1014.2 hPa | - | - | - | - |
| 1777982764 | 30.56° C | 27% | 1014.3 hPa | - | - | - | - |
| 1777981871 | 30° C | 28% | 1014.5 hPa | - | - | - | - |
| 1777980971 | 30° C | 28% | 1014.6 hPa | - | - | - | - |
| 1777980071 | 29.44° C | 31% | 1014.7 hPa | - | - | - | - |
| 1777979171 | 28.33° C | 32% | 1014.8 hPa | - | - | - | - |
| 1777978271 | 27.22° C | 31% | 1015 hPa | - | - | - | - |
| 1777977371 | 26.11° C | 32% | 1015.1 hPa | - | - | - | - |
| 1777976853 | 25° C | 33% | 1015.2 hPa | - | - | - | - |
| 1777976463 | 25° C | 33% | 1015.2 hPa | - | - | - | - |
| 1777975571 | 23.89° C | 36% | 1015.4 hPa | - | - | - | - |
| 1777974670 | 22.22° C | 38% | 1015.5 hPa | - | - | - | - |
| 1777973771 | 21.11° C | 39% | 1015.6 hPa | - | - | - | - |
| 1777972870 | 20.56° C | 40% | 1015.7 hPa | - | - | - | - |
| 1777971970 | 20° C | 40% | 1015.8 hPa | - | - | - | - |
| 1777971070 | 19.44° C | 41% | 1015.8 hPa | - | - | - | - |
| 1777969269 | 18.33° C | 42% | 1016.1 hPa | - | - | - | - |
| 1777968369 | 18.33° C | 42% | 1016 hPa | - | - | - | - |
| 1777967469 | 17.78° C | 43% | 1016.1 hPa | - | - | - | - |
| 1777966569 | 17.22° C | 45% | 1016.2 hPa | - | - | - | - |
| 1777965669 | 16.67° C | 45% | 1016.2 hPa | - | - | - | - |
| 1777964771 | 16.11° C | 47% | 1016.3 hPa | - | - | - | - |
| 1777963871 | 15.56° C | 48% | 1016.3 hPa | - | - | - | - |
* Rain since midnight (hover to see other rain measurements)
** Current wind speed in m/s (hover to see current wind gust speed)